{"data":{"norad_id":45544,"epoch":"2026-05-24T23:26:16.417824Z","epoch_age_seconds":70832,"freshness":"FRESH","line1":"1 45544U 20025P   26144.97657891  .00049833  00000+0  44372-3 0  9999","line2":"2 45544  53.0453  77.8195 0004064  41.4434 318.6889 15.67992149337240","mean_motion":15.67992149,"eccentricity":0.0004064,"inclination_deg":53.0453,"raan_deg":77.8195,"arg_perigee_deg":41.4434,"mean_anomaly_deg":318.6889,"bstar":0.00044372,"rev_number":33724,"period_min":91.837194524116,"perigee_km":361.9068024782,"apogee_km":367.38733737023,"semimajor_km":6742.7840699242,"source":"CELESTRAK","updated_at":"2026-05-25T13:38:16.422373Z"}}